Location: Tierra del Sol
(32.6128°N, 116.3319°W)
Time: 02:30:05
(UTC-07:00)

ISS - Pass Details

Date: 12 October 2017
Orbit: 401 x 408 km, 51.6° (Epoch: 19 October)

Event Time Altitude Azimuth Distance (km) Brightness Sun altitude
Rises 19:41:45 0° 326° (NW) 2,323 0.6 -18.9°
Reaches altitude 10° 19:44:06 10° 340° (NNW) 1,462 -0.7 -19.4°
Enters shadow 19:45:41 20° 5° (N) 1,015 -1.9 -19.8°
